Weather in Pulkovo

Russia / Saint-Petersburg and Leningrad Oblast     59°58′23″N   29°11′44″E
temp.,
°C
wind,
m/s
gust,
m/s
humid.,
%
clouds,
%
prec.,
mm/h
press.,
hPa
HPBL,
m
8 march, mon
mon800:00−8n61286100 0.0 999381
03:00−9n6118697 0.0 1003388
06:00−10n5108991 0.0 1006319
09:00−11n479094 0.0 1009260
12:00−10n468467 0.0 1012442
15:00−8nnw357945 0.0 1013307
18:00−9nnw458033 0.0 1015129
21:00−12n458850 0.0 1016107
9 march, tue
tue900:00−14nne349312 0.0 101761
03:00−15nne33936 0.0 101953
06:00−15ene349314 0.0 102071
09:00−16ene359139 0.0 1021183
12:00−14e4586100 0.0 1022355
15:00−13e5779100 0.0 1024410
18:00−15e588141 0.0 1024252
21:00−18e698721 0.0 1026252
10 march, wed
wed1000:00−19e58840 0.0 1028212
03:00−19e47840 0.0 1029161
06:00−19e46820 0.0 1029129
09:00−18e357815 0.0 1031124
12:00−14e346991 0.0 1031178
15:00−12ene346876 0.0 1031215
18:00−12e45696 0.0 1030106
21:00−13se45743 0.0 103063
11 march, thu
thu1100:00−14se46750 0.0 102981
03:00−14se47740 0.0 1028113
06:00−13se58730 0.0 1026145
09:00−12se486917 0.0 1024201
12:00−9sse5107911 0.0 1022528
15:00−6sse498242 0.0 1020493
18:00−7sse578676 0.0 1017169
21:00−7sse6128571 0.0 1014282
12 march, fri
fri1200:00−7sse61285100 0.0 1012329
03:00−8sse61384100 0.0 1008394
06:00−8se71583100 0.0 1004520
09:00−6sse81584100 0.1 1002749
12:00−5sse81484100 0.3 1000842
15:00−4sse81391100 1.3 998798
18:00−3sse61390100 1.4 997537
21:00−2s51195100 2.6 996335